Wind_Speed
12 12 12 12 12 12 12 12 12 12 12 12 12 12 12 11 11 11 11 10 9 9 10 10 9 9 9 8 8 7 8 8 8 7 7 7 7 7 7 7 8 8 9 10
13 12 13 14 14 14 13 13 13 13 13 14 14 13 13 12 12 12 11 11 11 10 10 10 10 10 10 10 9 9 9 9 9 8 8 8 8 8 8 9 9 10 10 10
14 14 14 15 15 15 14 14 14 14 14 15 15 14 13 13 13 13 12 12 12 11 11 11 11 12 12 11 11 11 10 10 9 9 9 9 9 10 10 10 10 10 11 11
15 15 15 15 15 15 15 15 15 15 15 15 15 15 14 13 13 13 12 12 13 12 12 11 12 13 13 12 12 12 11 11 11 10 10 10 10 11 11 11 11 12 12 12
14 15 15 15 15 16 16 16 16 16 16 16 15 15 13 13 13 13 13 13 13 13 13 13 12 13 14 14 13 14 13 12 12 11 11 11 12 12 13 13 13 13 13 13
15 15 15 15 16 16 16 16 16 17 17 17 15 15 14 14 14 14 14 14 14 14 14 14 13 14 14 14 14 14 14 14 13 13 13 12 12 13 13 14 14 14 14 14
16 16 16 16 17 17 17 17 17 18 17 16 16 16 15 15 16 16 16 15 16 15 15 15 15 15 15 15 15 15 15 15 15 14 14 14 13 14 14 15 16 15 15 15
17 17 17 17 17 17 17 18 18 18 18 17 17 16 15 16 16 17 17 17 16 16 16 16 16 15 16 16 16 16 16 15 16 15 15 15 15 16 16 16 17 16 16 16
19 18 18 18 18 18 18 19 19 20 20 19 17 16 16 16 17 17 18 17 17 17 17 17 17 17 16 17 17 17 17 17 17 17 17 17 17 18 18 18 17 17 17 17
20 20 18 19 19 19 18 18 20 21 21 20 18 16 15 15 16 16 17 18 17 18 18 18 18 18 18 17 18 18 18 18 18 18 18 18 18 18 18 18 18 17 17 17
21 21 20 20 20 19 19 19 20 20 20 20 19 17 15 15 16 16 17 18 18 17 17 18 18 19 19 18 18 19 19 19 19 19 19 18 18 18 18 18 18 18 18 18
22 22 21 20 20 21 21 20 20 21 21 21 20 17 16 16 16 17 18 18 18 18 18 18 19 19 19 19 19 20 21 20 20 20 19 18 19 19 19 20 20 20 19 19
23 23 23 22 21 21 22 21 21 21 22 22 22 19 17 18 18 19 19 19 19 20 20 20 19 20 20 20 20 20 21 21 21 21 21 20 20 20 21 21 21 21 21 20
24 25 24 23 22 22 23 23 22 23 23 23 23 21 19 19 20 21 21 21 21 21 21 21 20 21 21 20 21 21 21 21 22 22 23 23 22 22 22 23 22 22 22 22
26 26 25 24 24 24 24 24 24 24 24 25 24 23 22 22 21 22 22 22 23 22 23 22 22 21 22 21 21 21 21 22 22 23 24 24 24 24 24 23 24 24 24 23
26 27 27 26 25 26 26 25 25 25 25 25 25 24 24 24 24 23 23 23 23 23 24 24 23 23 23 21 22 22 22 23 24 23 24 25 25 26 26 25 26 26 25 25
26 27 27 27 27 27 27 25 26 25 26 26 26 25 25 25 25 24 24 24 23 23 24 25 25 24 24 24 23 23 24 24 25 25 25 26 27 27 27 27 27 27 27 26
27 27 27 27 28 29 27 26 26 26 26 26 27 27 27 27 26 26 25 25 25 25 25 25 26 26 25 25 25 25 26 26 27 27 27 27 28 28 28 27 28 28 29 28
28 28 29 29 29 29 28 27 27 28 27 27 27 27 27 28 27 26 26 26 26 27 26 26 26 26 27 27 27 27 28 27 27 27 27 27 28 29 29 29 29 30 30 29
29 29 29 30 30 29 28 27 27 28 28 27 28 28 29 28 29 27 27 27 28 29 28 28 28 28 28 28 28 29 29 29 29 28 28 29 29 29 30 31 31 31 31 31
29 30 30 30 30 29 28 27 28 29 28 28 28 29 30 30 29 29 29 29 30 31 30 30 29 29 30 30 30 30 30 30 29 29 30 30 30 30 30 31 32 31 31 31
29 29 30 31 31 30 29 29 29 28 28 28 28 28 29 30 30 30 30 30 32 32 31 31 31 31 31 31 31 31 30 30 30 30 30 31 31 31 31 31 31 31 31 30
29 30 30 31 31 31 30 30 30 29 29 28 28 28 29 30 30 30 30 31 32 32 32 31 32 32 32 32 32 31 31 31 31 30 31 31 31 31 31 31 31 31 31 31
28 29 30 31 31 32 31 31 32 31 31 30 30 29 30 30 31 31 31 32 32 31 31 32 33 33 33 33 33 32 31 32 31 32 32 32 32 32 32 32 32 31 31 31
27 29 30 31 31 32 32 32 32 32 32 31 31 32 31 32 32 32 33 33 34 33 33 33 34 34 34 34 33 32 33 32 32 32 33 33 33 33 32 32 32 32 31 31
25 27 29 30 31 32 32 32 33 33 33 32 32 31 32 32 32 33 33 33 33 34 34 34 34 34 34 34 33 33 33 33 33 33 33 33 33 33 33 33 33 33 32 33
Wind_Direction
264 265 265 263 260 259 259 262 262 263 262 261 260 261 263 258 255 252 247 242 237 237 236 241 246 242 239 241 247 254 254 255 257 260 261 264 265 267 272 279 283 286 289 288
264 266 264 263 261 261 262 264 263 264 264 263 260 261 260 258 253 250 246 242 240 238 238 240 243 244 243 239 247 255 256 255 257 261 265 268 270 271 275 280 283 286 289 289
264 264 266 265 263 264 264 267 266 265 264 263 262 260 256 254 253 250 249 247 243 243 240 241 243 245 244 242 247 254 255 254 255 258 263 269 273 275 278 280 282 285 286 289
261 263 264 265 265 265 264 264 265 264 265 264 263 259 255 254 252 251 251 249 248 246 246 246 246 246 246 247 249 252 253 254 256 257 261 268 271 275 277 281 284 285 286 287
264 263 262 264 266 265 265 265 266 265 265 264 262 259 254 252 252 251 251 250 250 248 249 250 250 249 248 250 251 251 252 253 258 260 263 267 271 274 278 280 282 282 284 286
264 263 262 263 264 264 264 265 265 264 265 265 262 257 253 251 250 250 251 252 253 252 252 253 255 255 253 251 251 251 252 254 258 260 263 269 272 273 275 277 280 281 282 284
263 263 263 264 265 264 264 265 265 264 264 265 261 258 253 252 251 251 253 255 254 254 255 256 257 258 257 253 251 252 254 257 260 262 265 268 271 273 273 275 278 281 281 283
263 262 263 265 266 267 264 264 264 266 266 264 261 260 256 256 255 254 255 255 256 254 255 256 257 258 259 255 252 254 256 257 261 264 267 267 270 272 273 274 277 281 281 283
264 263 263 264 264 264 264 262 263 265 265 264 262 261 259 261 260 258 256 256 258 257 257 258 260 259 261 258 255 257 258 258 261 265 268 269 270 271 273 275 276 278 279 282
264 263 262 263 263 264 263 261 261 263 265 265 262 260 260 260 261 260 259 258 259 260 260 259 260 260 260 259 257 260 260 259 261 265 268 270 269 271 272 274 275 277 278 280
265 263 261 261 262 265 262 261 262 264 264 265 265 262 261 260 259 260 260 260 259 261 262 261 263 264 264 260 260 260 261 261 261 265 268 270 269 269 273 274 274 276 276 278
264 262 262 261 261 261 261 260 261 262 261 262 263 262 260 260 260 260 260 260 261 262 263 262 262 264 264 262 261 260 260 261 261 263 267 271 272 273 274 274 274 274 275 276
263 263 264 262 260 260 260 260 261 262 261 260 261 263 264 262 259 259 260 259 260 262 262 263 263 263 264 262 261 262 262 262 262 263 265 269 271 273 274 273 271 273 275 276
262 262 262 264 264 262 260 258 258 260 261 262 262 261 259 263 262 260 259 259 260 261 262 263 262 264 265 263 262 263 264 264 263 263 266 269 270 271 272 274 271 272 274 275
261 261 261 262 262 260 259 257 256 259 261 263 263 262 260 261 262 261 260 261 260 259 260 260 260 263 266 265 262 263 264 266 265 264 266 269 270 271 271 272 271 271 272 274
261 261 260 260 261 261 259 258 258 258 260 261 262 263 262 262 262 262 262 263 260 259 259 260 261 261 264 264 264 264 266 268 267 266 267 268 269 270 271 272 272 272 272 271
263 264 262 260 259 259 259 260 261 262 261 262 263 263 263 262 263 262 262 261 258 258 258 261 262 262 265 266 267 267 267 269 268 268 268 268 269 268 269 270 270 271 273 272
262 261 263 264 261 259 261 262 264 264 264 262 262 262 264 263 262 261 260 261 260 259 260 262 264 262 264 265 266 267 269 270 269 269 270 270 270 269 269 270 271 272 274 274
261 262 262 263 264 264 263 265 266 267 266 265 263 261 263 262 260 262 261 261 262 262 264 264 264 264 266 267 267 268 269 270 270 269 270 272 271 271 270 271 272 272 273 273
260 261 262 263 264 264 265 266 265 265 265 265 264 263 263 264 261 261 261 261 262 262 264 264 264 265 267 268 268 269 270 271 272 270 270 270 271 272 272 272 272 273 272 272
260 261 260 262 264 265 265 265 265 264 266 265 265 265 264 265 264 262 260 261 263 263 264 264 265 265 266 268 269 269 271 272 272 270 270 270 270 270 271 272 273 274 273 272
261 260 259 260 262 264 264 265 265 265 265 265 266 266 265 264 264 263 262 263 263 263 264 265 264 265 266 267 268 269 271 272 272 270 269 270 270 268 269 271 273 274 274 272
262 262 261 260 262 264 264 264 264 264 264 264 264 264 263 262 263 263 263 263 263 263 264 265 265 266 267 268 268 269 271 272 271 270 271 271 270 269 270 271 272 274 274 272
264 263 262 262 263 264 264 264 264 264 265 265 264 264 262 263 263 263 263 263 263 264 265 265 266 266 266 268 268 269 270 271 271 270 271 271 271 271 271 271 273 273 273 272
264 264 264 264 264 264 263 264 265 266 267 268 267 265 264 264 264 265 264 264 264 264 265 266 266 264 266 267 267 268 268 269 269 270 271 271 271 271 271 272 272 271 271 270
265 266 267 267 264 262 263 264 266 267 267 266 266 267 266 266 266 266 265 264 263 264 265 265 265 264 265 265 266 266 266 267 268 269 270 270 271 270 270 271 272 272 271 269
Height
5830 5832 5832 5832 5832 5833 5833 5833 5833 5833 5833 5833 5833 5834 5834 5834 5835 5835 5835 5836 5837 5837 5838 5838 5839 5840 5841 5842 5842 5843 5843 5843 5844 5844 5844 5844 5844 5844 5844 5844 5843 5843 5843 5842
5828 5829 5829 5829 5829 5829 5830 5830 5830 5831 5830 5830 5830 5831 5831 5831 5832 5832 5833 5833 5834 5835 5836 5836 5837 5837 5838 5839 5840 5840 5841 5841 5842 5842 5842 5842 5842 5842 5841 5841 5841 5840 5840 5840
5825 5826 5825 5826 5826 5826 5827 5827 5827 5827 5827 5827 5827 5828 5828 5828 5828 5829 5830 5831 5832 5832 5833 5833 5834 5835 5836 5837 5837 5838 5838 5838 5839 5839 5839 5840 5839 5839 5839 5838 5838 5837 5837 5837
5821 5821 5822 5822 5823 5823 5823 5823 5823 5823 5823 5823 5824 5824 5825 5825 5825 5826 5827 5827 5828 5829 5830 5831 5831 5832 5832 5833 5834 5835 5835 5836 5836 5836 5837 5837 5837 5837 5836 5836 5835 5834 5834 5833
5818 5818 5818 5818 5819 5819 5819 5819 5819 5819 5819 5819 5820 5820 5822 5821 5822 5822 5823 5824 5825 5826 5827 5827 5828 5829 5829 5830 5831 5831 5831 5832 5833 5833 5833 5833 5833 5833 5833 5832 5832 5831 5831 5830
5813 5813 5814 5814 5814 5814 5814 5815 5815 5815 5815 5816 5816 5816 5817 5818 5818 5819 5820 5820 5821 5822 5823 5824 5825 5825 5826 5827 5827 5828 5828 5828 5829 5829 5830 5830 5830 5830 5829 5829 5828 5828 5827 5826
5810 5810 5809 5810 5810 5810 5810 5811 5810 5810 5810 5812 5812 5812 5813 5814 5814 5815 5816 5817 5817 5818 5819 5820 5820 5821 5822 5823 5823 5824 5824 5825 5825 5826 5826 5826 5826 5826 5826 5825 5824 5824 5823 5823
5805 5806 5805 5805 5805 5805 5805 5806 5806 5806 5806 5807 5807 5807 5810 5810 5810 5811 5812 5813 5813 5814 5815 5816 5816 5817 5817 5818 5819 5820 5820 5821 5821 5822 5822 5822 5822 5822 5821 5821 5820 5820 5819 5819
5800 5801 5801 5800 5800 5800 5800 5800 5801 5801 5801 5802 5803 5804 5805 5805 5806 5806 5807 5808 5809 5809 5810 5811 5811 5812 5813 5813 5814 5815 5816 5816 5817 5817 5817 5817 5817 5817 5817 5816 5816 5815 5815 5814
5794 5795 5796 5795 5795 5795 5796 5796 5796 5796 5796 5796 5798 5799 5801 5801 5801 5802 5802 5803 5804 5804 5805 5806 5806 5807 5808 5809 5809 5810 5810 5811 5812 5812 5812 5812 5812 5812 5811 5811 5811 5811 5810 5810
5788 5789 5790 5790 5790 5790 5791 5791 5791 5791 5791 5792 5793 5797 5796 5797 5797 5797 5797 5798 5799 5800 5800 5801 5801 5802 5803 5803 5804 5805 5805 5806 5806 5806 5806 5806 5806 5806 5806 5806 5806 5806 5805 5805
5782 5783 5784 5785 5785 5785 5785 5786 5786 5787 5787 5787 5787 5793 5791 5792 5792 5792 5793 5793 5794 5794 5795 5795 5796 5796 5797 5797 5798 5799 5800 5800 5801 5801 5801 5801 5801 5801 5801 5801 5801 5800 5800 5799
5777 5777 5778 5779 5781 5780 5780 5780 5781 5781 5781 5781 5782 5788 5786 5786 5786 5787 5787 5788 5788 5789 5789 5790 5790 5791 5791 5792 5792 5793 5794 5794 5795 5795 5795 5796 5796 5795 5795 5795 5795 5794 5794 5793
5770 5771 5772 5773 5773 5774 5774 5775 5775 5775 5775 5776 5777 5780 5781 5780 5780 5781 5781 5782 5782 5783 5783 5784 5784 5785 5785 5786 5786 5787 5787 5788 5788 5789 5789 5790 5790 5789 5789 5789 5788 5788 5788 5787
5763 5764 5764 5765 5766 5766 5767 5768 5769 5769 5769 5770 5771 5772 5774 5774 5774 5774 5775 5776 5776 5777 5777 5778 5778 5779 5779 5779 5780 5780 5781 5781 5781 5782 5783 5783 5783 5783 5783 5782 5782 5781 5781 5781
5756 5757 5757 5758 5759 5759 5760 5761 5762 5763 5763 5764 5764 5766 5767 5767 5767 5768 5769 5769 5770 5770 5771 5771 5772 5772 5773 5773 5773 5774 5774 5774 5774 5775 5775 5776 5776 5776 5775 5775 5775 5774 5774 5774
5749 5750 5750 5751 5752 5751 5752 5755 5756 5756 5757 5757 5758 5760 5759 5760 5761 5761 5762 5762 5763 5764 5764 5765 5765 5766 5766 5766 5767 5767 5767 5767 5767 5767 5767 5768 5768 5768 5768 5768 5767 5767 5767 5767
5742 5743 5742 5743 5744 5743 5748 5748 5748 5748 5749 5750 5750 5751 5752 5753 5753 5754 5755 5755 5756 5757 5757 5758 5758 5758 5759 5760 5760 5760 5760 5760 5760 5759 5759 5760 5760 5760 5760 5760 5759 5759 5759 5759
5734 5735 5735 5735 5735 5736 5739 5740 5740 5740 5741 5742 5742 5743 5744 5745 5746 5747 5747 5748 5748 5749 5749 5750 5750 5751 5751 5752 5752 5752 5752 5752 5752 5751 5751 5751 5751 5751 5751 5751 5751 5751 5751 5751
5726 5727 5727 5727 5727 5728 5732 5732 5732 5733 5733 5734 5734 5735 5736 5737 5738 5740 5739 5739 5740 5741 5741 5742 5742 5743 5743 5743 5743 5743 5743 5743 5743 5743 5743 5743 5743 5743 5743 5743 5742 5742 5742 5742
5718 5718 5719 5719 5718 5720 5723 5723 5724 5725 5727 5726 5726 5726 5727 5728 5729 5730 5730 5731 5731 5732 5732 5733 5734 5734 5735 5735 5735 5735 5735 5734 5734 5734 5734 5734 5734 5734 5734 5734 5733 5733 5733 5733
5709 5710 5710 5711 5711 5715 5715 5715 5716 5716 5716 5717 5717 5718 5718 5719 5720 5720 5721 5721 5722 5722 5723 5724 5724 5725 5725 5725 5725 5726 5725 5725 5725 5724 5724 5724 5724 5724 5724 5724 5724 5724 5723 5723
5700 5701 5702 5703 5705 5705 5706 5706 5706 5707 5707 5708 5709 5709 5709 5710 5711 5711 5711 5712 5712 5713 5714 5714 5715 5716 5716 5716 5716 5716 5716 5716 5715 5715 5715 5715 5715 5715 5715 5715 5714 5714 5713 5713
5691 5692 5692 5693 5695 5696 5696 5697 5697 5698 5698 5699 5699 5700 5700 5701 5701 5702 5702 5702 5703 5704 5704 5705 5705 5705 5706 5706 5706 5706 5706 5706 5706 5706 5706 5705 5705 5705 5705 5705 5704 5704 5703 5703
5683 5683 5683 5684 5686 5686 5687 5688 5688 5688 5689 5690 5690 5691 5691 5691 5692 5692 5692 5692 5693 5693 5694 5694 5695 5695 5696 5696 5696 5696 5696 5696 5696 5696 5696 5696 5695 5695 5695 5695 5694 5694 5693 5693
5675 5675 5675 5675 5676 5676 5677 5678 5678 5679 5679 5680 5680 5681 5681 5681 5681 5681 5682 5682 5683 5683 5684 5684 5684 5685 5685 5685 5686 5686 5686 5686 5686 5686 5686 5686 5686 5685 5685 5685 5685 5684 5684 5683